Location: Pointed Rock Observatory
(32.4532°N, 111.0636°W)
Time: 12:35:31
(UTC-07:00)

OTV 5 (USA 277) - Visible Passes

Search period start: 19 November 2018 00:00
Search period end: 29 November 2018 00:00
Orbit: 339 x 348 km, 54.5° (Epoch: 14 November)

Date Brightness Start Highest point End Pass type
(mag) Time Alt. Az. Time Alt. Az. Time Alt. Az.
22 Nov ? 06:26:48 10° S 06:29:09 23° SE 06:31:31 10° ENE visible
24 Nov ? 05:39:02 10° S 05:41:20 22° SE 05:43:38 10° ENE visible
25 Nov ? 06:01:51 10° SW 06:04:43 72° NW 06:07:34 10° NE visible
26 Nov ? 04:54:51 15° E 04:54:51 15° E 04:55:43 10° ENE visible
26 Nov ? 06:26:22 11° W 06:28:18 18° NW 06:30:21 10° N visible
27 Nov ? 05:18:56 16° NE 05:18:56 16° NE 05:19:42 10° NE visible
